User: anonymous   Login
Location: Unspecified
(0.0000°N, 0.0000°E)
Time: 01:02:42
(UTC+00:00)
Language:

STARLINK-31077 - Orbit

View from above orbital plane
View from above orbital plane
View from above satellite
View from above satellite

Ground track
Ground track

The orbit is defined by the following mean orbital elements,

1 58637U          26145.61753550 +.00000000 +00000-0 +12309-3 0 00000
2 58637  43.0002 352.8958 0000768 272.7195  87.3569 15.27566933    09
Epoch (UTC): 25 May 2026 14:49:15
Eccentricity: 0.0000768
inclination: 43.0002°
perigee height: 483 km
apogee height: 484 km
right ascension of ascending node: 352.8958°
argument of perigee: 272.7195°
revolutions per day: 15.27566933
mean anomaly at epoch: 87.3569°

The dashed part of the orbit path shows where the satellite is in the earth's shadow,  

DLR